Regional Weather Roundup
Issued by NWS

Home | Current Version | Previous Version | Text Only | Print | Product List | Glossary On
Versions: 1 2 3 4 5 6 7 8 9 10 11 12 13 14 15 16 17 18 19 20 21 22 23 24 25 26 27 28 29 30 31 32 33 34 35 36 37 38 39 40 41 42 43 44 45 46 47 48 49 50
590
ASUS44 KJAN 310503
RWRMS

MISSISSIPPI HOURLY WEATHER ROUNDUP
NATIONAL WEATHER SERVICE JACKSON MS
1200 AM CDT SUN AUG 31 2014

NOTE: "FAIR: INDICATES FEW OR NO CLOUDS BELOW 12,000 FEET WITH NO
SIGNIFICANT WEATHER AND/OR OBSTRUCTIONS TO VISIBILITY.

MSZ001>002-007>008-010>013-018>021-025>028-034>036-310600-
NORTHWEST MISSISSIPPI

CITY           SKY/WX    TMP DP  RH WIND       PRES   REMARKS
CLARKSDALE     CLOUDY    73  73 100 SE13      29.99S
CLEVELAND      CLOUDY    74  74  99 S7        29.99R
GREENWOOD      CLOUDY    74  72  93 S9        30.02S
GREENVILLE     CLOUDY    75  73  93 S8        29.99R
GRENADA        CLOUDY    72  72 100 S5        30.03S
OLIVE BRANCH   CLOUDY    72 N/A N/A SE10      30.01F
OXFORD         LGT RAIN  70  68  94 CALM      30.05F
TUNICA         RAIN      72  72 100 SE14      29.99F
$$

MSZ003>006-009-014>017-022>024-029>033-037>039-310600-
NORTHEAST MISSISSIPPI

CITY           SKY/WX    TMP DP  RH WIND       PRES   REMARKS
BELMONT        FAIR      71  70  98 SE6       30.08S
COLUMBUS AFB   CLOUDY    72  72 100 SE8       30.08S
CORINTH        MOCLDY    72  70  94 SE5       30.05S
GOLDN TRIANGLE MOCLDY    72  68  88 SE10      30.07F
STARKVILLE     FAIR      70  70 100 SE7       30.07S
TUPELO         CLOUDY    73  70  90 S6        30.05F
$$

MSZ040-058-310600-
CENTRAL MISSISSIPPI

CITY           SKY/WX    TMP DP  RH WIND       PRES   REMARKS
JACKSON INTL   MOCLDY    74  72  93 SE12      30.04F
JACKSON HAWKNS MOCLDY    74  72  93 S9        30.04F
MERIDIAN KEY   NOT AVBL
MERIDIAN NAS   CLOUDY    72  71  97 CALM      30.09S
RAYMOND        FAIR      73  68  83 SE3       30.04S
VICKSBURG      MOCLDY    74  72  93 S6        30.01S
$$

MSZ059>079-310600-
SOUTH MISSISSIPPI

CITY           SKY/WX    TMP DP  RH WIND       PRES   REMARKS
BROOKHAVEN     FAIR      73  73 100 CALM      30.08R
HATTIESBURG    MOCLDY    74  73  97 E3        30.07F
MCCOMB         CLOUDY    73  72  96 CALM      30.06S
NATCHEZ        MOCLDY    73  70  88 SE8       30.03S
PINE BELT      MOCLDY    73  70  88 CALM      30.08F
$$

MSZ080>082-310600-
COASTAL MISSISSIPPI

CITY           SKY/WX    TMP DP  RH WIND       PRES   REMARKS
BILOXI         MOCLDY    77  74  92 E5        30.06F
PASCAGOULA     LGT RAIN  75  73  93 CALM      30.07S
GULFPORT       MOCLDY    75  74  96 CALM      30.06S
$$



USA.gov is the U.S. government's official web portal to all federal, state and local government web resources and services.